Regional Weather Roundup
Issued by NWS Sioux Falls, SD

Home | Current Version | Previous Version | Text Only | Print | Product List | Glossary Off
Versions: 1 2 3 4 5 6 7 8 9 10 11 12 13 14 15 16 17 18 19 20 21 22 23 24 25 26 27 28 29 30 31 32 33 34 35 36 37 38 39 40 41 42 43 44 45 46 47 48 49 50

000
ASUS43 KFSD 012202
RWRFSD

WEATHER ROUNDUP FOR SE SOUTH DAKOTA/SW MINNESOTA/NW IOWA
NATIONAL WEATHER SERVICE SIOUX FALLS SD
500 PM CDT SAT AUG 01 2015

NOTE: "FAIR" INDICATES FEW OR NO CLOUDS BELOW 12,000 FEET WITH NO
SIGNIFICANT WEATHER AND OR OBSTRUCTIONS TO VISIBILITY.


SDZ038>040-050-052>070-012300-
SOUTHEAST SOUTH DAKOTA

CITY           SKY/WX    TMP DP  RH WIND       PRES   REMARKS
BROOKINGS      SUNNY     84  63  48 SW17      29.89S
CHAMBERLAIN    SUNNY     89  60  37 W18G26    29.87F
HURON          SUNNY     88  62  41 SW13G18   29.82F
MADISON        FAIR      82  63  51 SW16G23   29.89F
MITCHELL       SUNNY     86  61  42 SW10G21   29.86F
SIOUX FALLS    MOSUNNY   83  62  49 SW10      29.89F
WINNER         FAIR      92  58  31 SW20G28   29.90F
YANKTON        SUNNY     88  57  35 SW14G21   29.87F
$$

MNZ071-072-080-081-089-090-097-098-012300-
SOUTHWEST MINNESOTA

CITY           SKY/WX    TMP DP  RH WIND       PRES   REMARKS
FAIRMONT       MOSUNNY   86  61  42 SW10      29.90F
JACKSON        MOSUNNY   84  68  58 SW10G16   29.93F
LUVERNE        SUNNY     84  61  45 SW7       29.90F
MARSHALL       SUNNY     86  63  45 SW16G23   29.86F
MONTEVIDEO     SUNNY     90  64  43 W9        29.84F
PIPESTONE      SUNNY     82  64  54 SW12      29.89F
REDWOOD FALLS  MOSUNNY   88  64  44 SW14G21   29.84F
TRACY          MOSUNNY   84  66  54 SW16      29.87F
WINDOM         SUNNY     84  64  51 SW12      29.90F
WORTHINGTON    MOSUNNY   81  63  54 SW9G16    29.92F
$$

IAZ001>003-012>014-020>022-031-032-NEZ013-014-SDZ071-012300-
NORTHWEST IOWA

CITY           SKY/WX    TMP DP  RH WIND       PRES   REMARKS
DENISON        CLOUDY    81  70  69 SW8       29.94F
ESTHERVILLE    MOSUNNY   83  67  58 SW9       29.92F
SIOUX CITY     PTSUNNY   82  67  60 S10       29.92F
SPENCER        PTSUNNY   84  62  47 W13       29.93F
$$

ABBREVIATIONS USED IN REMARKS
   TC - TEMPERATURE IN CELSIUS
  WCI - WIND CHILL INDEX
   HX - HEAT INDEX
  VSB - VISIBILITY



USA.gov is the U.S. government's official web portal to all federal, state and local government web resources and services.